Regional Weather Roundup
Issued by NWS

Home | Current Version | Previous Version | Graphics & Text | Print | Product List | Glossary On
Versions: 1 2 3 4 5 6 7 8 9 10 11 12 13 14 15 16 17 18 19 20 21 22 23 24 25 26 27 28 29 30 31 32 33 34 35 36 37 38 39 40 41 42 43 44 45 46 47 48 49 50
936
ASUS45 KBOI 010310
RWRID

IDAHO REGIONAL WEATHER ROUNDUP
NATIONAL WEATHER SERVICE BOISE ID
900 PM MDT FRI SEP 30 2016

NOTE: "FAIR" INDICATES FEW OR NO CLOUDS BELOW 12000 FEET
WITH NO SIGNIFICANT WEATHER AND/OR OBSTRUCTIONS TO VISIBILITY

IDZ012-014-010400-
SOUTHWEST IDAHO


CITY           SKY/WX    TMP DP  RH WIND       PRES   REMARKS
BOISE          PTCLDY    74  35  24 SE13      29.84S
CALDWELL       PTCLDY    73  40  30 SE9       29.82S
MOUNTAIN HOME  PTCLDY    69  44  40 SE12      29.87R
$$

IDZ016-017-010400-
SOUTHCENTRAL IDAHO


CITY           SKY/WX    TMP DP  RH WIND       PRES   REMARKS
BURLEY         CLEAR     65  48  54 SE6       29.98S
JEROME         MOCLDY    67  49  52 E10       29.97S
TWIN FALLS     MOCLDY    68  47  46 S15G22    29.98R
$$

IDZ019>023-010400-
SOUTHEAST IDAHO


CITY           SKY/WX    TMP DP  RH WIND       PRES   REMARKS
IDAHO FALLS    CLEAR     64  46  52 SE5       30.09R
POCATELLO      CLEAR     66  45  46 E6        30.06S
REXBURG        CLEAR     64  45  49 SE7       30.10S
$$

IDZ006-010-011-018-031-032-010400-
CENTRAL IDAHO MOUNTAINS


CITY           SKY/WX    TMP DP  RH WIND       PRES   REMARKS
MCCALL         MOCLDY    62  32  32 CALM      29.96F
HAILEY         MOCLDY    63  48  59 NW5       30.07F
STANLEY          N/A     53  35  50 SE5       30.11S
SALMON         CLEAR     57  41  54 SW3       29.99R
CHALLIS        CLEAR     56  41  57 CALM      30.03F
$$

IDZ002-004-006-007-026-010400-
NORTHERN IDAHO


CITY           SKY/WX    TMP DP  RH WIND       PRES   REMARKS
LEWISTON       CLOUDY    72  41  32 W9        29.78S
LOWELL           N/A     61  51  70 N7        29.80S
COEUR D`ALENE  CLOUDY    63  50  62 NE6       29.85F
MULLAN PASS      N/A     56  38  50 CALM      30.02F
$$




USA.gov is the U.S. government's official web portal to all federal, state and local government web resources and services.